Location: Grand Lay
(47.3253°N, 0.9468°E)
Time: 05:48:15
(UTC+00:00)

ATLAS 2AS CENTAUR R/B - Pass Details

Date: 18 January 2026
Orbit: 1050 x 1161 km, 63.7° (Epoch: 17 February)

Event Time Altitude Azimuth Distance (km) Brightness Sun altitude
Exits shadow 03:16:42 24° 42° (NE) 2,009 4.4 -43.4°
Drops below altitude 10° 03:20:50 10° 78° (ENE) 2,867 5.6 -42.7°
Sets 03:23:58 0° 91° (E) 3,822 6.4 -42.2°
